User: anonymous   Login
Location: Los Gatos B&B
(42.6926°N, 77.0646°W)
Time: 18:31:16
(UTC-04:00)
Language:

SL-16 R/B - Orbit

View from above orbital plane
View from above orbital plane
View from above satellite
View from above satellite

Ground track
Ground track

The orbit data is extracted from the following two-line orbital elements,

1 28353U 04021B   17142.96757027 -.00000239 +00000-0 -10011-3 0  9998
2 28353 070.9993 131.3561 0007407 249.0519 110.9811 14.14196526668581
Epoch (UTC): 22 May 2017 23:13:18
Eccentricity: 0.0007407
inclination: 70.9993°
perigee height: 839 km
apogee height: 850 km
right ascension of ascending node: 131.3561°
argument of perigee: 249.0519°
revolutions per day: 14.14196526
mean anomaly at epoch: 110.9811°
orbit number at epoch: 66858

The dashed part of the orbit path shows where the satellite is in the earth's shadow,  

DLR